User: anonymous   Login
Location: Unspecified
(0.0000°N, 0.0000°E)
Time: 23:49:00
(UTC+00:00)
Language:

Nadezhda 5 - Orbit

View from above orbital plane
View from above orbital plane
View from above satellite
View from above satellite

Ground track
Ground track

The orbit data is extracted from the following two-line orbital elements,

1 25567U 98072A   17349.13340167  .00000053  00000-0  41179-4 0  9994
2 25567  82.9478 215.1788 0027108  87.4879  22.9993 13.71829280951996
Epoch (UTC): 15 December 2017 03:12:05
Eccentricity: 0.0027108
inclination: 82.9478°
perigee height: 973 km
apogee height: 1013 km
right ascension of ascending node: 215.1788°
argument of perigee: 87.4879°
revolutions per day: 13.71829280
mean anomaly at epoch: 22.9993°
orbit number at epoch: 95199

The dashed part of the orbit path shows where the satellite is in the earth's shadow,  

DLR